Wind_Speed
13 12 13 15 15 22 30 28 31 33 38 41 43 43 36 26 17 6 6 11 13 13 15 18 12 11 10 12 15 13 10 11 11 8 22 22 31 29 23 20 20 18 17 18 18 26 26 28 31
10 10 14 14 18 27 34 36 36 39 41 47 48 47 38 31 25 13 1 9 13 16 16 17 16 13 13 11 12 12 11 12 9 24 24 28 30 28 22 20 21 23 19 13 14 20 26 28 31
11 12 11 14 18 25 31 36 36 42 46 51 51 53 47 36 29 19 9 8 13 18 18 16 19 15 16 13 13 8 9 12 24 26 24 30 28 24 20 18 20 17 15 16 12 19 22 25 28
15 12 12 14 18 22 27 33 39 43 47 52 53 56 54 46 36 26 19 16 15 17 18 19 20 18 15 12 12 11 17 27 27 25 28 27 24 20 19 17 16 15 16 19 16 17 21 23 22
12 12 15 17 17 19 23 32 35 39 44 45 49 52 56 50 42 36 32 28 25 23 23 23 22 22 21 19 17 24 28 28 25 25 27 23 19 16 14 13 13 14 15 15 20 17 20 21 20
10 12 17 22 19 17 21 29 34 34 37 40 47 50 56 55 44 42 41 39 36 32 29 29 27 26 25 25 31 30 29 26 23 24 24 19 13 10 10 9 10 12 17 19 22 24 22 17 15
9 12 21 24 23 20 20 25 32 33 35 39 46 47 52 55 48 41 43 43 38 36 33 32 32 32 32 33 33 32 27 26 26 25 22 17 13 11 9 8 8 8 17 16 17 19 24 17 13
11 11 16 20 20 21 23 24 29 33 34 36 42 44 48 50 50 46 43 40 39 38 36 36 37 35 34 34 33 30 27 26 24 22 20 16 12 19 17 8 9 11 14 22 18 23 23 23 14
11 14 16 15 16 19 21 22 26 30 31 33 37 40 41 46 45 47 43 44 42 41 41 40 40 40 38 34 30 27 25 23 21 19 15 13 14 12 10 10 8 11 13 13 19 21 20 19 13
7 7 10 13 15 19 18 19 22 24 27 31 36 38 41 40 41 40 41 38 40 41 38 35 33 34 33 31 29 27 24 20 16 14 11 11 5 9 10 10 11 14 15 10 17 16 22 19 14
4 5 3 6 11 13 15 13 16 19 21 25 28 32 35 37 37 36 33 33 33 33 34 32 30 29 27 25 21 18 15 11 7 4 4 5 2 4 6 12 11 14 14 17 18 18 19 19 21
3 3 4 4 4 7 9 8 11 13 15 20 24 27 29 30 31 32 31 30 26 26 27 27 25 22 21 19 17 14 11 9 6 2 2 3 4 4 12 15 14 14 15 17 15 10 16 15 18
4 6 7 3 4 2 1 3 7 10 11 16 20 22 24 22 24 24 25 25 22 25 25 20 16 15 12 11 11 9 5 7 7 3 6 5 4 7 9 11 12 13 14 15 14 11 13 18 17
8 6 8 9 10 8 4 5 8 9 10 12 17 18 17 17 15 16 17 18 19 17 16 16 15 15 13 9 11 10 8 6 7 7 8 8 7 6 7 8 12 13 14 13 12 11 13 16 20
10 4 7 10 9 10 10 8 7 7 9 13 16 12 13 13 10 9 12 11 12 11 10 9 7 7 8 11 9 9 8 9 9 5 2 3 3 4 5 6 7 10 11 14 15 12 10 12 13
11 11 7 4 13 13 12 11 10 13 12 10 11 10 11 11 8 9 8 7 8 4 4 6 4 3 1 1 6 7 9 12 8 8 11 13 11 12 13 12 12 12 14 14 15 12 10 10 12
11 11 15 14 7 13 12 10 13 16 18 14 10 10 9 10 6 10 7 7 7 11 10 6 7 6 4 4 1 2 4 11 13 8 12 12 13 12 13 14 14 15 15 16 20 19 14 15 14
12 12 13 15 13 11 11 13 15 17 18 18 14 12 10 10 11 10 10 11 12 14 15 13 13 10 9 9 12 10 10 11 14 11 17 14 15 14 14 16 17 17 17 17 19 20 22 18 13
15 19 19 19 19 19 17 18 19 19 21 22 21 18 18 15 15 14 17 19 15 13 17 18 18 19 20 17 17 20 21 23 18 15 16 19 17 18 22 25 23 25 24 22 22 23 23 20 24
21 22 24 27 26 28 24 22 26 26 27 27 27 26 24 23 20 20 18 17 23 23 17 20 21 23 21 22 22 21 24 28 29 28 28 24 25 23 27 28 25 22 20 16 22 22 26 29 33
26 26 28 29 31 34 32 32 33 33 32 31 25 27 26 25 28 27 22 19 22 24 24 25 23 25 25 24 26 25 29 32 30 31 33 32 33 32 31 31 28 20 22 23 10 28 34 33 30
28 32 31 33 30 32 35 36 34 33 32 31 36 34 35 32 31 34 36 32 29 25 30 29 28 26 28 29 35 35 31 36 32 30 33 35 33 28 30 28 26 25 23 16 28 33 36 38 37
37 37 37 36 35 32 36 39 36 34 34 39 43 44 45 42 39 39 40 40 37 33 32 29 35 34 34 37 35 39 43 35 37 32 35 35 37 35 37 37 28 25 32 31 42 44 45 48 41
37 37 37 39 39 40 40 42 47 48 50 52 50 49 50 49 48 44 46 45 40 39 37 40 44 52 47 41 41 47 44 44 35 37 40 41 39 42 40 36 37 33 42 48 50 48 50 52 50
40 41 43 45 46 48 49 52 55 58 58 57 55 55 59 60 60 57 51 51 49 50 47 51 56 54 52 51 52 45 40 41 39 36 37 41 38 29 30 32 32 35 45 54 56 53 51 59 53
45 46 46 49 51 53 56 57 60 60 62 66 67 69 66 63 62 63 62 61 61 60 58 64 59 51 48 47 53 42 42 45 42 35 39 43 32 31 33 32 42 44 52 54 58 52 50 52 46
43 43 42 40 40 40 43 47 52 52 52 53 55 57 59 61 62 62 65 69 70 70 71 71 67 62 47 51 45 47 45 44 38 37 47 52 51 45 46 49 54 55 53 55 58 57 57 62 60
31 33 34 37 39 42 47 51 52 57 57 58 58 60 60 62 66 68 68 67 66 64 62 60 58 58 51 52 55 55 54 44 46 43 45 51 50 56 57 54 60 61 66 70 70 70 68 68 74
34 36 39 41 43 44 45 50 52 55 57 60 60 61 61 62 63 66 66 66 67 67 66 65 62 55 45 50 55 59 58 47 57 54 54 54 62 57 52 58 64 70 71 76 76 78 78 80 84
36 37 39 42 44 47 47 50 52 53 56 56 58 57 57 57 59 63 66 67 65 65 66 63 59 56 53 55 58 61 59 60 61 62 66 65 62 63 61 62 60 66 73 80 83 82 85 87 89
Wind_Direction
73 47 58 58 56 67 62 56 45 40 34 28 25 22 16 17 4 334 250 224 202 184 177 184 170 155 156 141 146 129 139 148 154 141 146 138 134 128 124 113 114 95 87 81 67 42 47 49 41
75 65 67 63 71 75 55 49 47 39 36 33 30 25 22 22 20 22 184 195 190 174 167 174 168 163 157 148 130 122 123 145 142 143 143 141 136 127 117 101 94 90 84 68 57 50 51 46 41
79 71 67 76 86 81 56 51 49 46 41 37 35 29 26 26 24 35 63 148 168 164 156 154 156 148 147 138 131 133 140 135 140 143 139 140 132 122 118 106 98 78 73 76 62 50 43 48 45
64 65 67 87 99 83 59 54 50 48 44 39 36 33 29 31 34 49 74 105 130 144 137 135 140 136 138 144 133 143 132 135 136 135 142 130 122 112 115 108 93 72 66 60 55 52 45 46 51
76 74 64 87 95 81 65 55 47 46 45 39 37 36 35 36 45 59 76 92 105 116 117 120 126 131 122 126 135 133 131 131 132 131 135 128 120 116 113 98 81 57 55 52 52 44 42 47 47
90 81 74 84 87 84 62 51 47 47 43 42 40 40 41 40 50 66 78 89 97 106 109 111 116 117 120 127 129 128 127 128 131 126 133 131 115 102 99 93 68 61 59 45 36 26 15 23 36
111 96 87 93 87 77 56 53 50 52 48 46 39 42 47 46 49 63 77 87 95 101 106 112 117 119 122 126 125 121 123 117 114 118 127 119 110 96 86 84 80 71 53 47 39 20 17 15 19
93 102 97 89 80 77 68 55 48 52 53 49 41 44 51 51 55 63 74 83 93 95 99 105 108 111 116 120 117 112 112 117 113 116 117 111 106 83 73 99 88 67 45 33 34 23 7 11 21
96 106 102 88 84 86 73 57 51 53 47 51 46 45 52 56 60 65 74 85 90 95 100 105 109 112 114 115 112 110 107 105 104 110 112 107 88 70 52 69 42 41 25 21 14 20 11 17 42
107 127 101 86 84 88 80 67 50 51 50 45 53 54 52 54 60 64 70 75 90 95 97 98 99 106 112 115 114 110 110 105 106 100 89 61 85 65 69 48 31 35 33 15 25 28 26 28 40
138 131 142 100 80 82 80 68 54 46 43 47 45 49 55 54 54 62 69 77 83 88 92 96 98 102 103 105 101 99 103 100 100 103 109 58 90 67 31 11 357 6 19 13 16 28 39 44 38
196 166 192 201 60 85 75 69 52 42 37 42 39 37 46 53 57 54 60 68 76 84 92 98 102 105 108 112 114 109 116 109 109 100 47 354 31 8 2 11 24 33 30 19 13 5 32 45 35
222 216 212 229 255 255 54 12 32 25 19 34 29 36 31 37 48 56 57 60 67 77 84 94 106 105 106 101 89 87 70 39 43 354 341 1 349 334 347 357 10 23 24 18 21 26 29 33 41
252 254 235 234 230 250 283 309 356 17 8 356 13 21 28 20 25 40 53 59 57 63 65 77 89 103 107 86 71 83 62 50 62 77 80 74 53 35 33 5 355 360 7 16 18 19 24 32 24
227 254 306 261 247 231 249 260 298 324 344 346 349 8 11 8 9 13 18 42 69 47 57 57 70 71 88 97 72 60 40 7 353 359 353 319 322 322 325 336 341 344 353 1 13 17 20 18 11
241 239 256 255 237 228 225 255 288 305 320 335 336 338 355 349 2 17 6 348 352 28 21 9 33 33 81 100 71 69 33 14 334 334 343 340 341 342 333 326 321 325 332 335 335 355 350 13 24
250 240 250 270 263 235 243 266 284 299 307 312 315 313 330 347 330 344 1 14 334 318 323 318 306 295 282 286 60 302 356 355 328 321 332 343 346 334 323 315 311 313 316 306 316 328 337 337 332
250 240 246 257 259 260 266 268 277 290 293 293 300 296 302 309 309 299 303 317 322 324 315 294 292 278 271 276 292 292 299 293 321 315 334 313 317 335 336 326 313 308 311 309 301 302 301 300 309
253 259 268 269 265 267 265 271 275 284 289 288 287 285 296 281 282 288 284 293 300 297 294 283 285 282 273 286 289 302 298 298 299 292 306 314 319 324 321 314 319 316 308 313 307 305 285 291 295
276 273 281 283 282 277 274 275 281 285 292 290 286 284 284 287 273 277 275 293 289 288 283 291 277 280 281 270 299 301 295 289 292 296 304 298 296 297 313 318 317 312 296 305 303 296 283 285 288
273 282 288 292 289 287 287 284 285 285 287 290 282 295 292 289 277 269 279 274 283 280 287 290 280 280 281 272 288 294 295 292 287 296 300 298 297 289 289 304 307 303 288 285 294 280 286 289 289
271 281 282 285 286 287 284 284 285 286 284 284 291 294 300 292 284 271 270 273 280 280 288 275 267 264 272 283 286 290 290 294 289 287 292 289 294 290 285 299 292 286 279 246 270 276 273 276 281
274 280 281 284 285 281 277 278 278 277 282 286 287 288 289 289 290 276 269 273 274 279 280 271 266 275 275 284 273 292 288 284 284 285 289 287 293 292 290 290 277 284 276 262 250 258 267 275 276
281 283 284 288 288 289 287 286 290 286 288 289 288 285 286 288 286 280 271 270 268 274 270 276 278 289 283 271 277 284 280 282 280 284 282 285 291 294 286 278 272 255 262 257 261 259 268 271 275
279 282 284 285 285 283 282 281 282 285 286 284 282 281 283 284 283 282 270 265 266 267 268 275 280 284 282 267 275 282 273 282 277 286 282 283 292 282 273 267 263 253 257 259 260 259 272 272 272
279 279 280 281 282 283 283 282 282 280 278 276 275 282 283 282 280 278 273 267 266 266 267 276 277 275 278 268 278 271 279 278 277 280 281 275 284 282 281 269 248 259 251 256 263 267 269 271 268
277 279 280 282 284 286 287 288 289 288 287 285 285 284 282 281 280 275 273 270 269 268 269 273 273 274 261 260 265 271 275 269 271 265 265 283 265 268 266 250 251 261 252 254 264 271 266 267 273
290 291 294 296 295 293 294 293 292 293 291 289 286 283 280 279 278 277 274 272 271 269 268 268 267 265 263 253 254 257 266 260 260 255 257 256 265 267 255 247 248 257 253 260 269 271 269 266 271
301 303 302 301 301 300 299 297 297 295 293 293 290 286 283 280 278 275 273 271 268 267 266 266 264 260 256 249 250 248 252 246 244 248 245 254 246 255 251 252 255 257 255 259 268 272 274 274 275
299 298 299 298 297 297 299 301 299 297 300 301 299 296 289 283 280 276 274 272 270 269 265 260 258 260 243 242 242 246 246 248 251 253 246 254 258 255 250 253 249 254 257 262 267 270 270 271 272
Height
11011 11011 11010 11008 11007 11005 11002 10998 10994 10987 10980 10972 10964 10953 10945 10940 10935 10931 10930 10931 10934 10939 10943 10946 10952 10956 10961 10966 10971 10974 10976 10976 10979 10979 10981 10982 10983 10984 10986 10988 10989 10987 10986 10985 10985 10983 10980 10976 10972
11013 11013 11012 11011 11009 11008 11004 11000 10995 10988 10981 10973 10965 10955 10945 10938 10931 10927 10926 10928 10933 10938 10942 10947 10952 10958 10962 10966 10971 10973 10974 10976 10978 10980 10982 10984 10986 10987 10989 10991 10989 10989 10988 10987 10987 10986 10983 10979 10975
11016 11014 11014 11013 11012 11011 11008 11003 10999 10992 10984 10976 10968 10959 10948 10940 10930 10925 10924 10927 10932 10938 10943 10948 10954 10960 10964 10968 10971 10972 10973 10977 10980 10982 10985 10988 10989 10991 10992 10992 10991 10991 10991 10989 10988 10988 10985 10982 10979
11018 11017 11016 11016 11014 11013 11011 11007 11001 10996 10988 10980 10973 10964 10953 10942 10933 10927 10926 10928 10935 10940 10946 10950 10956 10962 10966 10970 10972 10972 10976 10980 10983 10986 10990 10993 10994 10994 10994 10994 10993 10992 10992 10991 10989 10988 10986 10984 10981
11020 11020 11019 11017 11016 11014 11013 11009 11005 11000 10994 10988 10981 10972 10961 10950 10942 10936 10932 10934 10938 10944 10950 10954 10959 10964 10969 10971 10973 10976 10981 10985 10988 10991 10995 10996 10996 10997 10997 10996 10996 10995 10993 10992 10991 10989 10988 10985 10983
11023 11023 11021 11019 11019 11017 11015 11013 11010 11005 11003 10996 10989 10982 10970 10960 10954 10948 10944 10944 10947 10951 10956 10958 10963 10967 10971 10974 10978 10982 10987 10990 10994 10997 11000 11000 11000 11001 11000 11000 11000 10998 10996 10994 10992 10991 10990 10987 10984
11025 11024 11024 11022 11021 11020 11018 11018 11014 11010 11007 11002 10996 10989 10980 10973 10967 10961 10957 10956 10958 10960 10962 10964 10967 10972 10976 10981 10986 10989 10992 10997 10999 11001 11004 11003 11004 11005 11004 11003 11003 11000 10999 10996 10995 10994 10991 10987 10985
11026 11026 11026 11026 11025 11023 11021 11020 11018 11014 11012 11008 11002 10998 10992 10987 10981 10974 10971 10970 10970 10971 10972 10973 10975 10980 10985 10990 10994 10996 10998 11001 11003 11005 11007 11007 11008 11008 11006 11004 11003 11002 10999 10997 10995 10992 10989 10986 10984
11028 11028 11027 11028 11028 11026 11024 11023 11022 11019 11018 11013 11009 11007 11001 10997 10994 10989 10986 10983 10981 10982 10982 10984 10985 10989 10993 10997 10999 11002 11004 11006 11007 11009 11010 11010 11010 11009 11008 11007 11007 11004 11002 11000 10997 10994 10992 10988 10985
11030 11030 11029 11030 11030 11029 11029 11027 11025 11023 11022 11018 11014 11013 11008 11006 11004 11000 10998 10997 10994 10993 10993 10995 10997 10999 11001 11003 11005 11007 11009 11011 11012 11012 11011 11011 11011 11010 11009 11007 11006 11005 11003 11001 10999 10996 10993 10990 10988
11031 11032 11032 11032 11032 11031 11030 11030 11028 11027 11025 11022 11019 11018 11013 11012 11012 11010 11008 11006 11005 11004 11003 11004 11005 11006 11007 11009 11011 11013 11013 11014 11014 11013 11012 11011 11010 11010 11010 11009 11006 11005 11003 11000 10999 10996 10996 10993 10991
11031 11033 11035 11033 11033 11033 11032 11032 11031 11030 11028 11025 11024 11022 11020 11018 11017 11016 11016 11014 11012 11011 11011 11011 11012 11012 11012 11012 11013 11014 11014 11015 11014 11013 11012 11011 11010 11010 11008 11008 11007 11005 11003 11000 10997 10997 10998 10996 10994
11032 11033 11034 11035 11033 11032 11033 11034 11034 11033 11032 11029 11027 11026 11024 11024 11022 11020 11018 11020 11019 11017 11016 11016 11016 11017 11016 11015 11016 11016 11016 11016 11015 11013 11012 11011 11009 11008 11008 11006 11005 11004 11002 11001 10999 10998 10997 10995 10995
11031 11032 11033 11034 11035 11033 11032 11032 11034 11035 11034 11033 11031 11028 11027 11025 11024 11024 11023 11022 11022 11022 11022 11021 11020 11018 11018 11019 11017 11016 11015 11013 11012 11012 11011 11009 11007 11005 11005 11004 11004 11003 11002 11002 11000 10998 10997 10995 10993
11032 11032 11032 11032 11032 11032 11032 11032 11032 11033 11034 11033 11031 11030 11027 11026 11024 11023 11025 11023 11022 11023 11022 11021 11021 11020 11019 11016 11016 11015 11014 11014 11012 11010 11007 11006 11005 11004 11002 11002 11000 10999 10999 10999 10999 10998 10997 10995 10994
11030 11031 11031 11030 11029 11029 11030 11031 11030 11030 11031 11031 11030 11028 11028 11026 11025 11023 11021 11023 11023 11022 11022 11022 11020 11018 11018 11017 11015 11014 11014 11013 11011 11010 11009 11007 11006 11004 11003 11003 11003 11001 10998 10996 10996 10998 10996 10996 10995
11029 11028 11028 11028 11027 11027 11027 11027 11027 11027 11026 11028 11027 11026 11026 11026 11024 11022 11022 11020 11021 11022 11022 11020 11018 11017 11016 11015 11014 11013 11013 11011 11010 11008 11007 11005 11004 11002 11001 11000 11000 10999 10999 10997 10993 10993 10993 10995 10995
11027 11027 11027 11026 11025 11025 11027 11026 11025 11025 11024 11023 11024 11024 11024 11023 11022 11020 11018 11018 11018 11018 11018 11017 11016 11014 11012 11012 11011 11011 11009 11008 11007 11005 11004 11002 11001 11000 10999 10998 10997 10996 10994 10994 10993 10990 10989 10990 10990
11026 11026 11026 11026 11024 11023 11024 11023 11022 11020 11019 11019 11020 11020 11021 11019 11018 11017 11016 11015 11012 11013 11013 11012 11012 11011 11009 11008 11007 11006 11005 11003 11002 11001 11000 10999 10997 10995 10994 10995 10993 10992 10990 10990 10989 10988 10987 10987 10987
11023 11024 11024 11024 11023 11022 11020 11019 11018 11016 11015 11014 11014 11015 11014 11015 11014 11013 11012 11011 11010 11007 11007 11007 11006 11005 11004 11003 11001 11000 10998 10997 10996 10995 10994 10992 10992 10990 10990 10989 10988 10986 10985 10984 10983 10982 10982 10983 10983
11020 11021 11020 11019 11018 11016 11015 11013 11012 11010 11009 11008 11007 11007 11008 11008 11008 11007 11006 11006 11005 11003 11001 11001 11000 10999 10997 10996 10995 10994 10992 10990 10989 10988 10987 10987 10984 10982 10982 10983 10982 10980 10979 10979 10975 10975 10977 10977 10977
11016 11015 11014 11012 11010 11009 11007 11006 11003 11001 11000 11001 11001 11000 11000 11000 11001 10999 10998 10998 10998 10996 10995 10994 10993 10991 10991 10989 10989 10987 10986 10984 10982 10980 10979 10977 10976 10975 10975 10975 10975 10975 10975 10975 10973 10970 10968 10971 10972
11008 11007 11007 11005 11003 11003 10999 10998 10998 10996 10995 10994 10992 10991 10989 10989 10990 10990 10989 10989 10988 10987 10986 10985 10986 10984 10983 10983 10980 10980 10978 10976 10975 10973 10969 10968 10968 10968 10966 10966 10965 10965 10966 10965 10959 10961 10961 10961 10964
11001 10999 10998 10996 10993 10991 10990 10986 10984 10985 10985 10982 10980 10978 10975 10975 10976 10977 10977 10978 10977 10977 10977 10975 10975 10974 10973 10972 10972 10971 10970 10969 10969 10966 10963 10961 10960 10958 10957 10955 10954 10956 10954 10952 10949 10950 10950 10950 10952
10993 10992 10989 10987 10985 10983 10981 10978 10974 10970 10970 10970 10968 10965 10963 10961 10960 10961 10963 10963 10965 10964 10964 10962 10961 10959 10960 10962 10960 10960 10961 10959 10960 10958 10955 10954 10952 10948 10945 10943 10942 10942 10941 10941 10938 10938 10939 10938 10938
10984 10983 10983 10979 10976 10972 10968 10965 10960 10960 10958 10955 10952 10951 10946 10944 10943 10942 10944 10947 10948 10949 10952 10950 10949 10950 10946 10943 10945 10948 10950 10949 10949 10948 10947 10946 10943 10941 10940 10935 10933 10930 10928 10930 10929 10927 10925 10925 10925
10975 10973 10972 10971 10966 10963 10958 10951 10945 10945 10945 10942 10938 10935 10932 10928 10925 10924 10925 10926 10929 10932 10934 10932 10933 10936 10941 10938 10936 10935 10939 10939 10938 10933 10931 10934 10932 10930 10929 10927 10923 10920 10918 10918 10917 10915 10913 10914 10912
10965 10963 10962 10960 10958 10954 10948 10941 10937 10929 10927 10924 10923 10918 10916 10911 10906 10905 10905 10906 10907 10910 10914 10916 10916 10920 10927 10928 10926 10926 10927 10927 10925 10920 10916 10918 10914 10913 10915 10912 10911 10910 10908 10904 10901 10899 10899 10898 10896
10956 10955 10953 10949 10945 10942 10938 10929 10924 10918 10911 10904 10901 10898 10896 10892 10889 10884 10884 10886 10887 10888 10893 10897 10901 10906 10910 10910 10909 10908 10910 10909 10908 10907 10908 10904 10902 10903 10899 10898 10897 10897 10894 10890 10886 10884 10882 10878 10876
10948 10947 10943 10939 10936 10931 10927 10917 10912 10905 10897 10890 10881 10877 10875 10872 10868 10865 10861 10861 10865 10869 10872 10877 10884 10891 10894 10892 10890 10891 10892 10893 10893 10893 10891 10889 10886 10885 10884 10883 10881 10881 10879 10877 10873 10868 10864 10860 10856